Location: Crescent
(42.8242°N, 73.7329°W)
Time: 07:06:50
(UTC+00:00)

Transit 4A - Pass Details

Date: 20 February 2026
Orbit: 864 x 977 km, 66.8° (Epoch: 9 March)

Event Time Altitude Azimuth Distance (km) Brightness Sun altitude
Rises 16:36:39 0° 330° (NNW) 3,610 10.5 35.9°
Reaches altitude 10° 16:39:11 10° 333° (NNW) 2,677 9.9 36.0°
Maximum altitude 16:45:27 71° 57° (ENE) 1,020 8.6 36.2°
Drops below altitude 10° 16:51:48 10° 141° (SE) 2,714 11.2 36.3°
Sets 16:54:23 0° 144° (SE) 3,662 11.7 36.3°
